TimeCST,TemperatureF,Dew PointF,Humidity,Sea Level PressureIn,VisibilityMPH,Wind Direction,Wind SpeedMPH,Gust SpeedMPH,PrecipitationIn,Events,Conditions,WindDirDegrees,DateUTC
12:15 AM,37.8,35.8,93,30.16,10.0,SE,15.0,23.0,N/A,,Clear,140,2013-11-04 06:15:00
12:35 AM,37.6,35.6,93,30.17,10.0,SSE,15.0,20.7,N/A,,Scattered Clouds,150,2013-11-04 06:35:00
12:55 AM,37.8,35.8,93,30.16,10.0,SSE,16.1,-,N/A,,Scattered Clouds,150,2013-11-04 06:55:00
1:15 AM,37.6,35.6,93,30.17,10.0,SSE,17.3,-,N/A,,Scattered Clouds,150,2013-11-04 07:15:00
1:35 AM,37.6,35.8,93,30.16,10.0,SSE,13.8,-,N/A,,Mostly Cloudy,150,2013-11-04 07:35:00
1:55 AM,37.4,35.8,94,30.16,10.0,SSE,11.5,19.6,N/A,,Mostly Cloudy,150,2013-11-04 07:55:00
2:15 AM,37.4,36.0,95,30.15,10.0,SSE,12.7,-,N/A,,Mostly Cloudy,150,2013-11-04 08:15:00
2:35 AM,37.4,36.1,95,30.14,10.0,SE,13.8,-,N/A,,Mostly Cloudy,140,2013-11-04 08:35:00
2:55 AM,37.8,36.3,95,30.13,10.0,SE,13.8,-,N/A,,Scattered Clouds,140,2013-11-04 08:55:00
3:15 AM,38.3,36.5,93,30.14,10.0,SSE,16.1,24.2,N/A,,Scattered Clouds,150,2013-11-04 09:15:00
3:35 AM,38.3,36.3,93,30.14,10.0,SSE,16.1,19.6,N/A,,Scattered Clouds,160,2013-11-04 09:35:00
3:55 AM,38.3,36.1,92,30.13,10.0,SSE,15.0,-,N/A,,Clear,150,2013-11-04 09:55:00
4:15 AM,38.3,36.0,91,30.13,10.0,SSE,12.7,19.6,N/A,,Scattered Clouds,150,2013-11-04 10:15:00
4:35 AM,38.3,36.0,91,30.12,10.0,SSE,15.0,21.9,N/A,,Scattered Clouds,150,2013-11-04 10:35:00
4:55 AM,38.8,36.1,90,30.12,10.0,SSE,17.3,-,N/A,,Scattered Clouds,150,2013-11-04 10:55:00
5:15 AM,39.2,36.3,89,30.12,10.0,SSE,15.0,20.7,N/A,,Mostly Cloudy,160,2013-11-04 11:15:00
5:35 AM,39.4,36.5,89,30.11,10.0,SSE,16.1,21.9,N/A,,Mostly Cloudy,160,2013-11-04 11:35:00
5:55 AM,39.6,36.5,89,30.10,10.0,SSE,17.3,-,N/A,,Mostly Cloudy,150,2013-11-04 11:55:00
6:15 AM,39.6,36.5,89,30.09,10.0,SSE,17.3,26.5,N/A,,Scattered Clouds,150,2013-11-04 12:15:00
6:35 AM,39.6,36.5,89,30.08,10.0,SSE,17.3,-,N/A,,Scattered Clouds,150,2013-11-04 12:35:00
6:55 AM,39.7,36.1,87,30.08,10.0,SSE,18.4,24.2,N/A,,Mostly Cloudy,150,2013-11-04 12:55:00
7:15 AM,39.9,36.1,86,30.08,10.0,SSE,16.1,24.2,N/A,,Mostly Cloudy,160,2013-11-04 13:15:00
7:35 AM,40.1,36.3,86,30.08,10.0,SSE,17.3,23.0,N/A,,Scattered Clouds,150,2013-11-04 13:35:00
7:55 AM,40.5,36.1,85,30.08,10.0,SSE,18.4,21.9,N/A,,Mostly Cloudy,160,2013-11-04 13:55:00
8:15 AM,41.2,36.5,83,30.08,10.0,SSE,19.6,26.5,N/A,,Mostly Cloudy,160,2013-11-04 14:15:00
8:35 AM,41.7,36.5,82,30.08,10.0,SSE,16.1,24.2,N/A,,Scattered Clouds,160,2013-11-04 14:35:00
8:55 AM,42.3,36.7,81,30.08,10.0,SSE,16.1,26.5,N/A,,Scattered Clouds,160,2013-11-04 14:55:00
9:15 AM,44.6,36.9,74,30.07,10.0,SSE,23.0,31.1,N/A,,Mostly Cloudy,160,2013-11-04 15:15:00
9:35 AM,45.5,37.0,72,30.07,10.0,SSE,24.2,31.1,N/A,,Scattered Clouds,160,2013-11-04 15:35:00
9:55 AM,46.0,36.7,70,30.07,10.0,SSE,24.2,28.8,N/A,,Scattered Clouds,160,2013-11-04 15:55:00
10:15 AM,45.9,36.3,69,30.06,10.0,South,24.2,31.1,N/A,,Scattered Clouds,170,2013-11-04 16:15:00
10:35 AM,45.3,36.0,70,30.07,10.0,South,18.4,27.6,N/A,,Clear,170,2013-11-04 16:35:00
10:55 AM,46.0,36.1,68,30.05,10.0,South,16.1,26.5,N/A,,Scattered Clouds,170,2013-11-04 16:55:00
11:15 AM,45.5,35.6,68,30.04,10.0,South,21.9,-,N/A,,Scattered Clouds,170,2013-11-04 17:15:00
11:35 AM,45.0,35.4,69,30.02,10.0,SSE,20.7,26.5,N/A,,Scattered Clouds,160,2013-11-04 17:35:00
11:55 AM,44.6,35.6,71,29.99,10.0,SSE,19.6,-,N/A,,Mostly Cloudy,150,2013-11-04 17:55:00
12:15 PM,46.4,36.5,68,29.99,10.0,SSE,23.0,28.8,N/A,,Scattered Clouds,160,2013-11-04 18:15:00
12:35 PM,45.9,36.1,69,29.98,10.0,South,21.9,28.8,N/A,,Mostly Cloudy,170,2013-11-04 18:35:00
12:55 PM,46.0,36.3,69,29.97,10.0,South,20.7,28.8,N/A,,Overcast,170,2013-11-04 18:55:00
1:15 PM,46.2,36.3,68,29.97,10.0,South,17.3,29.9,N/A,,Overcast,170,2013-11-04 19:15:00
1:35 PM,46.8,36.7,68,29.98,10.0,South,19.6,25.3,N/A,,Overcast,170,2013-11-04 19:35:00
1:55 PM,45.9,36.5,70,29.97,10.0,South,17.3,26.5,N/A,,Overcast,170,2013-11-04 19:55:00
2:15 PM,45.7,36.7,71,29.96,10.0,South,15.0,23.0,N/A,,Overcast,170,2013-11-04 20:15:00
2:35 PM,45.9,36.9,71,29.97,10.0,South,15.0,-,N/A,,Overcast,180,2013-11-04 20:35:00
2:55 PM,45.7,37.0,72,29.97,10.0,South,16.1,20.7,N/A,,Overcast,180,2013-11-04 20:55:00
3:15 PM,45.5,37.6,74,29.98,10.0,South,13.8,17.3,N/A,,Light Drizzle,190,2013-11-04 21:15:00
3:35 PM,43.9,39.4,84,29.98,10.0,South,11.5,16.1,N/A,Rain,Light Rain,180,2013-11-04 21:35:00
3:55 PM,43.2,40.1,89,29.99,10.0,South,11.5,-,N/A,Rain,Light Rain,190,2013-11-04 21:55:00
4:15 PM,42.6,40.3,91,29.99,5.0,South,12.7,-,N/A,,Drizzle,180,2013-11-04 22:15:00
4:35 PM,42.1,40.5,94,29.99,10.0,South,11.5,-,N/A,,Overcast,190,2013-11-04 22:35:00
4:55 PM,42.1,40.6,95,29.99,10.0,South,9.2,-,N/A,,Overcast,180,2013-11-04 22:55:00
5:15 PM,42.1,40.6,95,29.99,10.0,South,10.4,-,N/A,,Overcast,180,2013-11-04 23:15:00
5:35 PM,42.1,40.8,95,30.00,10.0,South,10.4,-,N/A,,Overcast,190,2013-11-04 23:35:00
5:55 PM,42.1,41.0,96,30.01,7.0,South,10.4,-,N/A,,Overcast,190,2013-11-04 23:55:00
6:15 PM,42.3,41.2,96,30.02,7.0,SSW,10.4,-,N/A,,Overcast,200,2013-11-05 00:15:00
6:35 PM,42.3,41.4,97,30.02,2.5,SSW,15.0,19.6,N/A,,Overcast,210,2013-11-05 00:35:00
6:55 PM,42.3,41.5,97,30.03,2.5,SSW,11.5,-,N/A,,Overcast,200,2013-11-05 00:55:00
7:15 PM,42.3,41.9,99,30.03,2.0,SSW,12.7,-,N/A,,Overcast,200,2013-11-05 01:15:00
7:35 PM,42.3,41.9,99,30.03,2.0,SSW,12.7,-,N/A,,Overcast,200,2013-11-05 01:35:00
7:55 PM,42.4,41.9,98,30.02,3.0,SSW,12.7,-,N/A,,Overcast,200,2013-11-05 01:55:00
8:15 PM,42.8,42.1,97,30.03,4.0,SSW,13.8,-,N/A,,Overcast,210,2013-11-05 02:15:00
8:35 PM,42.8,42.3,98,30.04,5.0,SW,13.8,-,N/A,,Overcast,220,2013-11-05 02:35:00
8:55 PM,42.8,42.6,99,30.05,4.0,SW,11.5,-,N/A,,Overcast,220,2013-11-05 02:55:00
9:15 PM,43.2,42.4,97,30.06,5.0,SW,9.2,17.3,N/A,,Overcast,230,2013-11-05 03:15:00
9:35 PM,43.2,42.4,97,30.07,7.0,SW,12.7,-,N/A,,Overcast,230,2013-11-05 03:35:00
9:55 PM,43.2,42.3,97,30.07,7.0,WSW,9.2,-,N/A,,Overcast,240,2013-11-05 03:55:00
10:15 PM,43.2,42.3,97,30.08,7.0,WSW,9.2,-,N/A,,Overcast,240,2013-11-05 04:15:00
10:35 PM,43.2,41.9,95,30.08,10.0,WSW,11.5,-,N/A,,Overcast,250,2013-11-05 04:35:00
10:55 PM,42.8,41.2,94,30.09,10.0,WSW,9.2,-,N/A,,Overcast,250,2013-11-05 04:55:00
11:15 PM,42.8,40.1,90,30.10,10.0,West,9.2,-,N/A,,Overcast,260,2013-11-05 05:15:00
11:35 PM,42.1,39.4,90,30.10,10.0,West,9.2,-,N/A,,Overcast,270,2013-11-05 05:35:00
11:55 PM,40.5,38.3,92,30.11,10.0,West,6.9,-,N/A,,Scattered Clouds,270,2013-11-05 05:55:00